N8XHB Weather Reports


Display with metric or nautical units.
time (UTC)temp
F
wind
direction
speed
MPH
gust
MPH
rain 1hr
in
rain 24hr
in
rain mn
in
humidity
%
barometer
mb
20260509053224 53 24 0.0 1.0 0.00 0.00 0.00 33 1005.4
20260509052722 53 192 2.0 3.0 0.00 0.00 0.00 32 1005.6
20260509052219 53 16 0.0 0.0 0.00 0.00 0.00 32 1005.4
20260509051717 52 26 1.0 1.0 0.00 0.00 0.00 32 1005.4
20260509051215 52 66 2.0 2.0 0.00 0.00 0.00 32 1005.4
20260509050711 52 53 1.0 2.0 0.00 0.00 0.00 32 1005.5
20260509050207 52 36 0.0 1.0 0.00 0.00 0.00 33 1005.7
20260509045705 52 35 0.0 1.0 0.00 0.00 0.00 32 1005.6
20260509045202 53 25 1.0 2.0 0.00 0.00 0.00 31 1005.8
20260509044659 52 344 2.0 2.0 0.00 0.00 0.00 30 1005.6
20260509044156 52 22 1.0 1.0 0.00 0.00 0.00 31 1005.9
20260509043653 53 16 1.0 1.0 0.00 0.00 0.00 31 1006.0
20260509043148 52 34 1.0 1.0 0.00 0.00 0.00 31 1005.8
20260509042645 52 39 1.0 1.0 0.00 0.00 0.00 31 1006.0
20260509042141 52 24 1.0 2.0 0.00 0.00 0.00 31 1005.8
20260509041638 52 346 1.0 1.0 0.00 0.00 0.00 31 1006.0
20260509041136 52 58 1.0 1.0 0.00 0.00 0.00 32 1006.1
20260509040634 51 33 1.0 1.0 0.00 0.00 0.00 33 1006.3
20260509040131 51 6 1.0 1.0 0.00 0.00 0.00 33 1005.9
20260509035627 51 7 0.0 0.0 0.00 0.00 0.00 33 1006.1
20260509035124 52 27 0.0 0.0 0.00 0.00 0.00 32 1006.2
20260509034622 52 21 1.0 1.0 0.00 0.00 0.00 31 1006.1
20260509034119 52 31 1.0 1.0 0.00 0.00 0.00 32 1006.3
20260509033616 52 109 1.0 1.0 0.00 0.00 0.00 31 1006.5
20260509033112 52 184 1.0 1.0 0.00 0.00 0.00 31 1006.3
20260509032610 52 178 2.0 2.0 0.00 0.00 0.00 31 1006.5
20260509032107 52 179 2.0 2.0 0.00 0.00 0.00 30 1006.6
20260509031605 52 178 2.0 2.0 0.00 0.00 0.00 31 1006.3
20260509031102 51 27 1.0 1.0 0.00 0.00 0.00 31 1006.7
20260509030600 50 11 1.0 1.0 0.00 0.00 0.00 32 1006.7
20260509030056 50 5 0.0 0.0 0.00 0.00 0.00 34 1006.8
20260509025552 50 11 0.0 0.0 0.00 0.00 0.00 35 1006.7
20260509025048 50 11 0.0 0.0 0.00 0.00 0.00 35 1006.9
20260509024544 51 11 0.0 0.0 0.00 0.00 0.00 35 1006.9
20260509024040 51 14 0.0 0.0 0.00 0.00 0.00 32 1007.1
20260509023538 52 15 0.0 0.0 0.00 0.00 0.00 32 1007.1
20260509023035 52 16 0.0 0.0 0.00 0.00 0.00 31 1007.3
20260509022531 52 34 0.0 0.0 0.00 0.00 0.00 31 1007.1
20260509022029 53 34 0.0 0.0 0.00 0.00 0.00 31 1007.1
20260509021526 53 33 1.0 0.0 0.00 0.00 0.00 31 1006.9
20260509021023 53 32 0.0 0.0 0.00 0.00 0.00 32 1006.9
20260509020521 53 32 0.0 0.0 0.00 0.00 0.00 31 1006.9
20260509020018 54 32 0.0 0.0 0.00 0.00 0.00 31 1007.0
20260509015517 55 14 0.0 1.0 0.00 0.00 0.00 28 1006.8
20260509015014 55 34 1.0 1.0 0.00 0.00 0.00 27 1006.9
20260509014511 55 46 1.0 1.0 0.00 0.00 0.00 28 1006.9
20260509014006 55 34 1.0 1.0 0.00 0.00 0.00 29 1006.9
20260509013504 55 34 0.0 0.0 0.00 0.00 0.00 28 1006.8
20260509012959 56 35 0.0 0.0 0.00 0.00 0.00 27 1006.8
20260509012456 56 40 1.0 1.0 0.00 0.00 0.00 26 1006.8
20260509011953 56 80 1.0 1.0 0.00 0.00 0.00 26 1007.0
20260509011450 57 34 1.0 1.0 0.00 0.00 0.00 26 1006.7
20260509010948 57 59 1.0 1.0 0.00 0.00 0.00 25 1006.8
20260509010446 57 38 1.0 1.0 0.00 0.00 0.00 25 1006.8
20260509005942 58 29 1.0 1.0 0.00 0.00 0.00 25 1006.7
20260509005441 57 61 1.0 1.0 0.00 0.00 0.00 24 1007.1
20260509004940 58 32 0.0 0.0 0.00 0.00 0.00 24 1006.9
20260509004437 58 33 0.0 0.0 0.00 0.00 0.00 24 1006.9
20260509003935 58 33 0.0 0.0 0.00 0.00 0.00 24 1007.0
20260509003433 58 30 0.0 0.0 0.00 0.00 0.00 24 1007.2
20260509002929 59 30 0.0 0.0 0.00 0.00 0.00 24 1007.0
20260509002427 59 22 0.0 0.0 0.00 0.00 0.00 24 1007.1
20260509001924 59 33 0.0 0.0 0.00 0.00 0.00 24 1007.0
20260509001420 59 24 1.0 1.0 0.00 0.00 0.00 24 1007.1
20260509000918 60 38 1.0 1.0 0.00 0.00 0.00 24 1007.2
20260509000417 60 34 0.0 0.0 0.00 0.00 0.00 24 1007.2
20260508235911 60 49 1.0 1.0 0.00 0.00 0.00 24 1007.1
20260508235409 59 83 1.0 1.0 0.00 0.00 0.00 25 1007.2
20260508234905 60 21 1.0 1.0 0.00 0.00 0.00 25 1007.3
20260508234402 60 17 1.0 1.0 0.00 0.00 0.00 24 1007.4
20260508233901 61 74 1.0 1.0 0.00 0.00 0.00 24 1007.5
20260508233400 61 21 1.0 1.0 0.00 0.00 0.00 25 1007.4
20260508232856 61 21 1.0 1.0 0.00 0.00 0.00 25 1007.6
20260508232352 61 19 1.0 1.0 0.00 0.00 0.00 25 1007.6
20260508231851 61 20 0.0 0.0 0.00 0.00 0.00 24 1007.4
20260508231347 62 43 1.0 2.0 0.00 0.00 0.00 26 1007.5
20260508230843 61 33 0.0 1.0 0.00 0.00 0.00 25 1007.3
20260508230340 61 24 0.0 0.0 0.00 0.00 0.00 25 1007.3
20260508225838 61 138 2.0 3.0 0.00 0.00 0.00 23 1007.4
20260508225334 62 52 1.0 1.0 0.00 0.00 0.00 24 1007.3
20260508224832 62 32 0.0 0.0 0.00 0.00 0.00 25 1007.4
20260508224329 62 11 0.0 0.0 0.00 0.00 0.00 24 1007.3
20260508223827 62 161 2.0 6.0 0.00 0.00 0.00 24 1007.3
20260508223324 62 17 1.0 1.0 0.00 0.00 0.00 24 1007.5
20260508222822 62 22 1.0 1.0 0.00 0.00 0.00 25 1007.3
20260508222318 62 9 3.0 3.0 0.00 0.00 0.00 24 1007.5
20260508221815 62 26 0.0 0.0 0.00 0.00 0.00 24 1007.6
20260508221310 62 15 1.0 1.0 0.00 0.00 0.00 25 1007.4
20260508220807 62 7 3.0 4.0 0.00 0.00 0.00 24 1007.5
20260508220303 62 34 1.0 1.0 0.00 0.00 0.00 25 1007.5
20260508215800 62 143 5.0 7.0 0.00 0.00 0.00 23 1007.6
20260508215257 62 171 2.0 3.0 0.00 0.00 0.00 24 1007.5
20260508214754 62 136 2.0 2.0 0.00 0.00 0.00 24 1007.5
20260508214251 62 149 2.0 2.0 0.00 0.00 0.00 24 1007.6
20260508213747 62 15 2.0 2.0 0.00 0.00 0.00 24 1007.5
20260508213244 62 147 4.0 4.0 0.00 0.00 0.00 24 1007.6
20260508212741 62 89 1.0 1.0 0.00 0.00 0.00 24 1007.7
20260508212237 63 17 2.0 2.0 0.00 0.00 0.00 26 1007.7
20260508211733 62 3 3.0 4.0 0.00 0.00 0.00 25 1007.7
20260508211229 63 16 5.0 6.0 0.00 0.00 0.00 23 1007.8
20260508210727 62 352 8.0 10.0 0.00 0.00 0.00 24 1007.4
20260508210223 63 177 3.0 4.0 0.00 0.00 0.00 25 1007.6
20260508205720 63 21 1.0 1.0 0.00 0.00 0.00 25 1007.5
20260508205217 62 9 2.0 2.0 0.00 0.00 0.00 24 1007.7
20260508204713 63 38 0.0 0.0 0.00 0.00 0.00 23 1007.9
20260508204209 63 18 1.0 2.0 0.00 0.00 0.00 27 1007.9
20260508203706 63 356 1.0 2.0 0.00 0.00 0.00 27 1008.0
20260508203202 63 21 0.0 0.0 0.00 0.00 0.00 27 1008.0
20260508202658 63 3 1.0 2.0 0.00 0.00 0.00 26 1008.0
20260508202155 64 17 2.0 3.0 0.00 0.00 0.00 24 1008.0
20260508201652 63 10 2.0 2.0 0.00 0.00 0.00 27 1008.0
20260508201149 64 17 2.0 4.0 0.00 0.00 0.00 28 1008.1
20260508200646 63 4 1.0 2.0 0.00 0.00 0.00 27 1008.3
20260508200142 63 112 1.0 2.0 0.00 0.00 0.00 25 1008.3
20260508195638 64 8 3.0 4.0 0.00 0.00 0.00 24 1008.2
20260508195135 63 5 2.0 3.0 0.00 0.00 0.00 25 1008.5
20260508194631 64 8 4.0 4.0 0.00 0.00 0.00 24 1008.5
20260508194128 63 30 1.0 2.0 0.00 0.00 0.00 26 1008.5
20260508193625 64 12 3.0 3.0 0.00 0.00 0.00 24 1008.7
20260508193122 63 20 1.0 1.0 0.00 0.00 0.00 25 1008.6
20260508192618 63 14 1.0 1.0 0.00 0.00 0.00 25 1008.8
20260508192116 63 38 3.0 3.0 0.00 0.00 0.00 26 1008.8
20260508191613 64 151 5.0 6.0 0.00 0.00 0.00 25 1008.8
20260508191109 64 10 2.0 3.0 0.00 0.00 0.00 24 1008.9
20260508190607 64 154 2.0 2.0 0.00 0.00 0.00 24 1008.6
20260508190103 63 166 5.0 4.0 0.00 0.00 0.00 23 1008.7
20260508185600 64 347 4.0 7.0 0.00 0.00 0.00 24 1008.8
20260508185057 65 239 2.0 2.0 0.00 0.00 0.00 25 1009.0
20260508184555 63 17 0.0 1.0 0.00 0.00 0.00 28 1008.9
20260508184051 63 39 1.0 1.0 0.00 0.00 0.00 24 1009.1
20260508183548 64 153 3.0 4.0 0.00 0.00 0.00 23 1009.3
20260508183044 64 357 2.0 3.0 0.00 0.00 0.00 25 1009.3
20260508182541 64 23 0.0 0.0 0.00 0.00 0.00 25 1009.1
20260508182038 65 122 1.0 2.0 0.00 0.00 0.00 25 1009.2
20260508181538 64 11 2.0 1.0 0.00 0.00 0.00 25 1009.4
20260508181036 63 15 0.0 0.0 0.00 0.00 0.00 32 1009.4
20260508180532 63 155 3.0 4.0 0.00 0.00 0.00 27 1009.3
20260508180029 64 52 3.0 3.0 0.00 0.00 0.00 27 1009.4
20260508175525 63 55 2.0 3.0 0.00 0.00 0.00 28 1009.5
20260508175023 64 42 1.0 1.0 0.00 0.00 0.00 26 1009.6
20260508174520 63 5 1.0 1.0 0.00 0.00 0.00 31 1010.0
20260508174017 63 38 1.0 2.0 0.00 0.00 0.00 26 1009.8
20260508173514 64 140 4.0 6.0 0.00 0.00 0.00 27 1010.1
20260508173010 63 11 1.0 2.0 0.00 0.00 0.00 27 1010.1
20260508172507 63 0 5.0 6.0 0.00 0.00 0.00 28 1009.9
20260508172003 64 1 1.0 2.0 0.00 0.00 0.00 32 1010.1
20260508171500 63 12 3.0 3.0 0.00 0.00 0.00 28 1010.3
20260508170956 63 150 2.0 3.0 0.00 0.00 0.00 27 1010.2
20260508170454 62 94 2.0 2.0 0.00 0.00 0.00 27 1010.3
20260508165950 62 12 1.0 1.0 0.00 0.00 0.00 32 1010.6
20260508165449 63 11 2.0 3.0 0.00 0.00 0.00 31 1010.3
20260508164944 63 2 1.0 2.0 0.00 0.00 0.00 27 1010.8
20260508164441 62 69 1.0 1.0 0.00 0.00 0.00 34 1010.7
20260508163938 61 9 3.0 3.0 0.00 0.00 0.00 32 1010.7
20260508163436 61 4 5.0 6.0 0.00 0.00 0.00 28 1010.8
20260508162932 61 163 5.0 6.0 0.00 0.00 0.00 28 1011.1
20260508162430 62 123 2.0 2.0 0.00 0.00 0.00 29 1011.1
20260508161926 62 87 2.0 3.0 0.00 0.00 0.00 29 1010.8
20260508161423 62 16 1.0 1.0 0.00 0.00 0.00 31 1010.8
20260508160921 61 31 1.0 2.0 0.00 0.00 0.00 29 1011.0
20260508160420 62 11 1.0 1.0 0.00 0.00 0.00 31 1011.1
20260508155915 61 48 2.0 2.0 0.00 0.00 0.00 29 1011.1
20260508155413 62 16 0.0 0.0 0.00 0.00 0.00 27 1011.0
20260508154909 62 46 1.0 1.0 0.00 0.00 0.00 32 1011.1
20260508154407 61 46 2.0 2.0 0.00 0.00 0.00 34 1011.2
20260508153903 59 23 0.0 0.0 0.00 0.00 0.00 39 1011.1
20260508153401 60 155 3.0 3.0 0.00 0.00 0.00 37 1011.1
20260508152856 61 98 3.0 3.0 0.00 0.00 0.00 34 1011.5
20260508152353 60 20 1.0 1.0 0.00 0.00 0.00 35 1011.2
20260508151850 60 13 1.0 1.0 0.00 0.00 0.00 35 1011.3
20260508151347 59 60 2.0 2.0 0.00 0.00 0.00 40 1011.4
20260508150843 59 135 3.0 3.0 0.00 0.00 0.00 33 1011.5
20260508150340 60 359 3.0 3.0 0.00 0.00 0.00 35 1011.6
20260508145836 60 29 1.0 1.0 0.00 0.00 0.00 37 1011.4
20260508145332 59 92 0.0 0.0 0.00 0.00 0.00 36 1011.7
20260508144829 59 32 0.0 1.0 0.00 0.00 0.00 38 1011.6
20260508144327 59 117 3.0 3.0 0.00 0.00 0.00 40 1011.6
20260508143824 59 60 2.0 2.0 0.00 0.00 0.00 40 1011.6
20260508143321 58 42 1.0 2.0 0.00 0.00 0.00 42 1011.4
20260508142818 57 32 1.0 1.0 0.00 0.00 0.00 46 1011.6
20260508142315 58 119 3.0 3.0 0.00 0.00 0.00 43 1011.8
20260508141811 58 27 2.0 2.0 0.00 0.00 0.00 44 1011.8
20260508141308 57 37 1.0 1.0 0.00 0.00 0.00 50 1012.0
20260508140806 57 31 2.0 2.0 0.00 0.00 0.00 47 1011.9
20260508140302 58 173 2.0 2.0 0.00 0.00 0.00 48 1011.7
20260508135758 57 61 1.0 2.0 0.00 0.00 0.00 50 1011.9
20260508135254 57 52 1.0 2.0 0.00 0.00 0.00 50 1011.9
20260508134750 56 31 0.0 0.0 0.00 0.00 0.00 51 1011.8
20260508134248 56 32 1.0 0.0 0.00 0.00 0.00 52 1011.8
20260508133744 55 28 0.0 0.0 0.00 0.00 0.00 53 1011.6
20260508133242 55 39 0.0 0.0 0.00 0.00 0.00 54 1011.8
20260508132739 54 46 1.0 1.0 0.00 0.00 0.00 53 1011.9
20260508132237 55 49 2.0 2.0 0.00 0.00 0.00 53 1011.9
20260508131732 54 36 1.0 1.0 0.00 0.00 0.00 54 1011.8
20260508131229 54 43 2.0 2.0 0.00 0.00 0.00 56 1012.0
20260508130725 53 39 1.0 1.0 0.00 0.00 0.00 58 1011.9
20260508130223 53 28 0.0 0.0 0.00 0.00 0.00 58 1011.8
20260508125718 54 56 1.0 1.0 0.00 0.00 0.00 56 1011.9
20260508125215 52 41 1.0 1.0 0.00 0.00 0.00 60 1012.0
20260508124713 51 37 1.0 1.0 0.00 0.00 0.00 59 1012.0
20260508124210 50 34 1.0 1.0 0.00 0.00 0.00 61 1012.1
20260508123708 50 36 1.0 1.0 0.00 0.00 0.00 61 1012.2
20260508123206 51 32 1.0 1.0 0.00 0.00 0.00 60 1012.0
20260508122701 50 36 0.0 0.0 0.00 0.00 0.00 60 1012.0
20260508122159 50 34 0.0 0.0 0.00 0.00 0.00 61 1012.0
20260508121656 50 34 0.0 0.0 0.00 0.00 0.00 60 1011.7
20260508121154 48 32 0.0 0.0 0.00 0.00 0.00 62 1011.7
20260508120651 48 31 1.0 1.0 0.00 0.00 0.00 62 1011.7
20260508120150 47 21 0.0 0.0 0.00 0.00 0.00 65 1011.8
20260508115647 45 19 1.0 1.0 0.00 0.00 0.00 66 1011.8
20260508115144 44 34 1.0 1.0 0.00 0.00 0.00 68 1011.7
20260508114641 44 33 1.0 1.0 0.00 0.00 0.00 69 1011.4
20260508114137 43 52 1.0 1.0 0.00 0.00 0.00 71 1011.5
20260508113634 42 39 1.0 1.0 0.00 0.00 0.00 72 1011.4
20260508113133 41 140 2.0 2.0 0.00 0.00 0.00 74 1011.5
20260508112628 40 65 2.0 2.0 0.00 0.00 0.00 76 1011.4
20260508112125 38 37 1.0 1.0 0.00 0.00 0.00 81 1011.2
20260508111622 37 36 0.0 0.0 0.00 0.00 0.00 85 1011.3
20260508111119 36 37 0.0 0.0 0.00 0.00 0.00 87 1011.4
20260508110617 35 37 0.0 0.0 0.00 0.00 0.00 88 1011.4
20260508110114 35 37 0.0 0.0 0.00 0.00 0.00 88 1011.3
20260508105614 35 37 0.0 0.0 0.00 0.00 0.00 88 1011.2
20260508105111 34 37 0.0 0.0 0.00 0.00 0.00 88 1011.3
20260508104609 34 37 0.0 0.0 0.00 0.00 0.00 89 1011.2
20260508104105 34 37 0.0 0.0 0.00 0.00 0.00 88 1011.1
20260508103602 34 37 0.0 0.0 0.00 0.00 0.00 88 1011.1
20260508103100 34 37 0.0 0.0 0.00 0.00 0.00 88 1011.2
20260508102557 34 37 0.0 0.0 0.00 0.00 0.00 87 1011.0
20260508102055 35 37 0.0 0.0 0.00 0.00 0.00 87 1011.0
20260508101552 35 37 0.0 0.0 0.00 0.00 0.00 88 1011.0
20260508101049 34 37 0.0 0.0 0.00 0.00 0.00 88 1011.2
20260508100547 34 37 0.0 0.0 0.00 0.00 0.00 88 1011.1
20260508100043 34 37 0.0 0.0 0.00 0.00 0.00 88 1011.1
20260508095541 34 37 0.0 0.0 0.00 0.00 0.00 87 1011.2
20260508095037 34 37 0.0 0.0 0.00 0.00 0.00 87 1011.2
20260508094535 34 37 0.0 0.0 0.00 0.00 0.00 85 1011.0
20260508094032 35 37 0.0 0.0 0.00 0.00 0.00 85 1011.3
20260508093528 35 37 0.0 0.0 0.00 0.00 0.00 85 1011.2
20260508093026 35 37 0.0 0.0 0.00 0.00 0.00 85 1011.1
20260508092523 35 37 0.0 0.0 0.00 0.00 0.00 84 1011.3
20260508092022 35 37 0.0 0.0 0.00 0.00 0.00 84 1011.4
20260508091519 36 37 0.0 0.0 0.00 0.00 0.00 84 1011.3
20260508091015 35 37 0.0 0.0 0.00 0.00 0.00 84 1011.2
20260508090514 36 37 0.0 0.0 0.00 0.00 0.00 83 1011.4
20260508090010 36 37 0.0 0.0 0.00 0.00 0.00 83 1011.4
20260508085507 36 37 0.0 0.0 0.00 0.00 0.00 82 1011.3
20260508085004 36 37 0.0 0.0 0.00 0.00 0.00 81 1011.2
20260508084500 37 37 0.0 0.0 0.00 0.00 0.00 81 1011.3
20260508083958 37 37 0.0 0.0 0.00 0.00 0.00 80 1011.5
20260508083455 37 37 0.0 0.0 0.00 0.00 0.00 79 1011.2
20260508082950 37 37 0.0 0.0 0.00 0.00 0.00 78 1011.3
20260508082447 38 37 0.0 0.0 0.00 0.00 0.00 77 1011.3
20260508081945 38 37 0.0 0.0 0.00 0.00 0.00 76 1011.4
20260508081442 39 37 0.0 0.0 0.00 0.00 0.00 75 1011.5
20260508080938 40 37 0.0 0.0 0.00 0.00 0.00 72 1011.3
20260508080437 41 37 0.0 0.0 0.00 0.00 0.00 67 1011.3
20260508075933 41 40 1.0 1.0 0.00 0.00 0.00 67 1011.4
20260508075430 41 33 0.0 0.0 0.00 0.00 0.00 67 1011.4
20260508074927 41 34 0.0 0.0 0.00 0.00 0.00 67 1011.4
20260508074425 41 37 0.0 1.0 0.00 0.00 0.00 67 1011.4
20260508073921 41 27 0.0 0.0 0.00 0.00 0.00 69 1011.4
20260508073419 41 27 0.0 0.0 0.00 0.00 0.00 68 1011.4
20260508072916 42 27 0.0 0.0 0.00 0.00 0.00 67 1011.5
20260508072412 41 26 0.0 0.0 0.00 0.00 0.00 67 1011.6
20260508071909 41 33 0.0 0.0 0.00 0.00 0.00 67 1011.7
20260508071408 41 32 0.0 0.0 0.00 0.00 0.00 68 1011.7
20260508070905 41 21 0.0 0.0 0.00 0.00 0.00 69 1011.8
20260508070403 40 18 0.0 0.0 0.00 0.00 0.00 71 1011.8
20260508065900 40 20 0.0 0.0 0.00 0.00 0.00 72 1011.9
20260508065358 40 20 0.0 0.0 0.00 0.00 0.00 72 1011.9
20260508064856 40 20 0.0 0.0 0.00 0.00 0.00 72 1012.0
20260508064353 40 20 0.0 0.0 0.00 0.00 0.00 72 1011.9
20260508063851 40 24 0.0 0.0 0.00 0.00 0.00 72 1011.8
20260508063348 41 29 0.0 1.0 0.00 0.00 0.00 71 1011.9
20260508062845 41 3 1.0 1.0 0.00 0.00 0.00 71 1012.0
20260508062343 41 3 0.0 0.0 0.00 0.00 0.00 69 1012.0
20260508061840 41 3 0.0 0.0 0.00 0.00 0.00 69 1011.9
20260508061337 41 3 0.0 0.0 0.00 0.00 0.00 70 1011.9
20260508060833 41 3 0.0 0.0 0.00 0.00 0.00 68 1012.0
20260508060331 41 3 0.0 0.0 0.00 0.00 0.00 67 1011.8
20260508055826 41 4 0.0 0.0 0.00 0.00 0.00 68 1012.1
20260508055324 40 3 0.0 0.0 0.00 0.00 0.00 70 1012.1
20260508054820 40 3 0.0 0.0 0.00 0.00 0.00 71 1012.2
20260508054318 40 3 0.0 0.0 0.00 0.00 0.00 72 1012.2
20260508053815 41 3 0.0 0.0 0.00 0.00 0.00 71 1012.1